This is the latest recevied weather packets stored in our database for station/object K0CPM-2. If no packets are shown the sender has not sent any weather packets the latest 10 day(s).
| Time | Temp. | Humidity | Pressure | Rain* | Wind** | Luminosity | Snow |
|---|---|---|---|---|---|---|---|
| 1777666570 | 17.22° C | 89% | 1008.9 hPa | 22.1 mm | - | - | - |
| 1777665655 | 17.78° C | 89% | 1008 hPa | 15.49 mm | - | - | - |
| 1777664751 | 18.33° C | 89% | 1007.2 hPa | 2.03 mm | - | - | - |
| 1777663850 | 18.33° C | 89% | 1006.9 hPa | 0.76 mm | - | - | - |
| 1777662948 | 18.89° C | 89% | 1007 hPa | 0 mm | - | - | - |
| 1777662047 | 18.89° C | 89% | 1006.9 hPa | 0.76 mm | - | - | - |
| 1777661146 | 18.89° C | 89% | 1006.9 hPa | 0.76 mm | - | - | - |
| 1777660252 | 18.89° C | 89% | 1006.7 hPa | 0.76 mm | - | - | - |
| 1777659343 | 18.89° C | 89% | 1007.6 hPa | 0.51 mm | - | - | - |
| 1777658446 | 18.89° C | 89% | 1007.7 hPa | 0 mm | - | - | - |
| 1777657545 | 18.89° C | 89% | 1008.1 hPa | 0 mm | - | - | - |
| 1777656639 | 19.44° C | 89% | 1008.2 hPa | 0 mm | - | - | - |
| 1777655743 | 19.44° C | 89% | 1008.9 hPa | 0 mm | - | - | - |
| 1777654844 | 20° C | 89% | 1009.2 hPa | 0 mm | - | - | - |
| 1777653939 | 20° C | 89% | 1009 hPa | 0 mm | - | - | - |
| 1777653040 | 20° C | 89% | 1008.8 hPa | 0 mm | - | - | - |
| 1777652136 | 20° C | 89% | 1009.7 hPa | 0 mm | - | - | - |
| 1777651240 | 19.44° C | 89% | 1010.3 hPa | 0 mm | - | - | - |
| 1777650346 | 18.89° C | 89% | 1010.7 hPa | 0 mm | - | - | - |
| 1777649432 | 18.89° C | 89% | 1010.5 hPa | 0 mm | - | - | - |
| 1777648532 | 19.44° C | 89% | 1010.2 hPa | 0 mm | - | - | - |
| 1777647631 | 19.44° C | 89% | 1010.3 hPa | 0 mm | - | - | - |
| 1777646731 | 20° C | 89% | 1009.8 hPa | 0 mm | - | - | - |
| 1777645827 | 20° C | 89% | 1009.5 hPa | 0 mm | - | - | - |
| 1777644925 | 20° C | 89% | 1008.7 hPa | 0 mm | - | - | - |
* Rain latest hour (hover to see other rain measurements)
** Current wind speed in m/s (hover to see current wind gust speed)